Total_Precipitation_Accumulation
1.71 1.78 1.72 1.69 1.64 1.65 1.70 1.70 1.67 1.64 1.58 1.59 1.68 1.70 1.68 1.74 1.83 1.93 1.80 1.84 1.83 1.85 1.84 1.91 1.95 2.09 2.10 2.01 2.11 2.16 2.23 2.37 2.13 1.71 1.74 1.86 1.88 1.71 1.68 1.60 1.57 1.57 1.49
1.50 1.48 1.47 1.53 1.53 1.47 1.46 1.51 1.57 1.50 1.44 1.51 1.56 1.53 1.47 1.59 1.75 1.79 1.72 1.79 1.84 1.80 1.89 2.04 1.96 2.06 2.15 2.19 2.36 2.24 2.30 2.58 2.50 2.15 2.08 2.18 2.09 1.96 1.91 1.81 1.56 1.46 1.43
1.26 1.25 1.27 1.30 1.31 1.31 1.34 1.41 1.49 1.52 1.52 1.50 1.48 1.40 1.40 1.49 1.57 1.59 1.70 1.81 1.86 1.90 2.00 2.09 2.14 2.34 2.25 2.30 2.35 2.28 2.32 2.56 2.75 2.50 2.28 2.39 2.34 2.12 2.11 1.89 1.72 1.73 1.50
1.18 1.25 1.36 1.41 1.44 1.47 1.45 1.51 1.61 1.68 1.62 1.63 1.61 1.62 1.64 1.61 1.62 1.69 1.78 1.86 1.87 1.92 2.08 2.13 2.17 2.25 2.34 2.50 2.48 2.54 2.71 2.89 3.02 2.85 2.67 2.73 2.75 2.65 2.46 2.10 1.99 1.87 1.72
1.37 1.48 1.67 1.81 1.84 1.75 1.73 1.81 1.88 1.92 1.85 1.99 1.96 1.93 1.98 1.94 1.75 1.88 1.96 1.91 2.02 1.94 2.03 2.09 2.07 2.21 2.30 2.43 2.34 2.54 2.88 3.07 3.19 3.20 3.11 3.25 3.18 3.07 2.73 2.38 2.27 2.15 1.95
1.23 1.41 1.64 1.86 1.97 1.96 1.99 2.11 2.14 2.09 2.19 2.27 2.19 2.15 2.12 1.87 1.99 2.06 2.05 2.15 2.18 2.14 2.16 2.19 2.15 2.16 2.08 2.13 2.20 2.33 2.55 2.73 2.94 3.16 3.21 3.29 3.31 3.24 3.07 2.78 2.43 2.16 1.95
1.45 1.65 1.77 1.96 2.11 2.13 2.09 2.13 2.18 2.20 2.17 2.21 2.21 2.23 2.10 2.04 2.06 1.89 1.90 1.95 2.10 2.18 2.22 2.24 2.04 1.90 1.97 1.87 2.01 2.08 2.04 2.08 2.22 2.52 2.71 2.75 3.02 3.17 3.10 2.70 2.39 2.10 1.87
1.43 1.59 1.72 1.92 2.06 2.16 2.26 2.29 2.38 2.46 2.46 2.42 2.34 2.32 2.28 2.14 2.04 1.87 1.93 1.82 1.90 1.97 2.01 2.05 2.02 1.92 1.91 2.00 2.00 1.88 1.69 1.64 1.76 1.77 1.84 2.09 2.43 2.81 2.94 2.78 2.72 2.43 2.09
1.67 1.84 1.96 2.06 2.19 2.26 2.31 2.46 2.58 2.67 2.63 2.62 2.57 2.56 2.54 2.52 2.46 2.17 2.07 1.90 1.94 1.94 1.95 1.96 1.93 1.79 1.94 1.89 1.82 1.81 1.69 1.57 1.58 1.60 1.66 1.86 2.15 2.43 2.68 2.72 2.63 2.52 2.21
2.05 2.12 2.19 2.29 2.36 2.37 2.40 2.50 2.54 2.57 2.56 2.58 2.52 2.58 2.55 2.54 2.62 2.34 2.13 1.87 1.89 1.93 2.02 2.03 2.04 1.89 1.95 1.89 1.83 1.85 1.73 1.63 1.63 1.60 1.61 1.66 1.73 2.04 2.37 2.38 2.38 2.43 2.26
2.08 2.16 2.26 2.34 2.54 2.68 2.73 2.59 2.46 2.46 2.53 2.63 2.61 2.65 2.65 2.60 2.56 2.21 2.06 1.96 2.01 2.05 2.02 1.95 1.97 1.99 1.78 1.65 1.58 1.57 1.63 1.68 1.68 1.60 1.53 1.53 1.58 1.70 1.92 2.01 2.10 2.14 2.09
2.03 2.14 2.26 2.32 2.32 2.38 2.64 2.72 2.68 2.60 2.52 2.55 2.64 2.58 2.50 2.44 2.31 2.03 1.79 1.75 1.81 1.82 1.82 1.79 1.78 1.75 1.55 1.39 1.23 1.18 1.26 1.28 1.33 1.40 1.38 1.34 1.37 1.43 1.62 1.89 2.06 2.09 2.02
2.07 2.23 2.38 2.44 2.48 2.45 2.49 2.58 2.56 2.50 2.38 2.25 2.30 2.34 2.32 2.32 2.19 1.89 1.59 1.49 1.52 1.46 1.54 1.74 1.72 1.59 1.45 1.34 1.27 1.19 1.10 1.03 1.13 1.22 1.17 1.17 1.21 1.32 1.49 1.80 2.05 2.25 2.18
2.20 2.24 2.30 2.35 2.37 2.42 2.54 2.47 2.40 2.39 2.33 2.17 2.18 2.21 2.22 2.20 2.05 1.79 1.62 1.53 1.49 1.43 1.48 1.64 1.71 1.69 1.58 1.47 1.36 1.19 1.01 1.00 1.04 1.11 1.18 1.22 1.32 1.40 1.49 1.61 1.88 2.07 2.15
2.05 2.00 2.07 2.17 2.21 2.22 2.36 2.43 2.25 2.15 2.19 2.09 2.15 2.31 2.25 2.06 1.89 1.74 1.54 1.50 1.50 1.56 1.58 1.66 1.78 1.81 1.78 1.67 1.51 1.35 1.23 1.19 1.15 1.14 1.25 1.30 1.35 1.38 1.38 1.43 1.63 1.79 1.78
2.07 2.04 2.03 2.07 2.12 2.15 2.12 2.16 2.13 1.90 1.85 1.76 1.80 1.88 1.92 1.81 1.70 1.61 1.52 1.46 1.41 1.41 1.43 1.56 1.83 1.90 1.91 1.88 1.77 1.58 1.44 1.35 1.30 1.30 1.32 1.33 1.35 1.40 1.45 1.50 1.58 1.71 1.71
2.17 2.24 2.18 2.00 1.92 1.91 1.89 1.86 1.86 1.74 1.51 1.42 1.40 1.38 1.35 1.34 1.35 1.42 1.46 1.40 1.32 1.22 1.16 1.34 1.65 1.85 1.93 1.93 1.85 1.65 1.47 1.45 1.50 1.47 1.43 1.40 1.40 1.43 1.53 1.58 1.65 1.74 1.78
1.85 1.91 1.88 1.77 1.70 1.64 1.60 1.56 1.50 1.56 1.52 1.38 1.30 1.25 1.22 1.18 1.21 1.39 1.51 1.34 1.22 1.17 1.10 1.25 1.49 1.77 1.90 1.95 1.92 1.85 1.70 1.66 1.66 1.62 1.58 1.53 1.49 1.51 1.52 1.54 1.58 1.62 1.67
1.66 1.67 1.63 1.64 1.68 1.68 1.73 1.70 1.59 1.57 1.63 1.63 1.52 1.31 1.26 1.23 1.25 1.49 1.59 1.27 1.18 1.23 1.25 1.30 1.40 1.60 1.81 1.93 1.94 1.91 1.84 1.80 1.80 1.81 1.76 1.70 1.66 1.69 1.64 1.56 1.58 1.66 1.67
1.59 1.72 1.67 1.55 1.57 1.71 1.80 1.76 1.76 1.83 1.82 1.89 1.87 1.58 1.39 1.30 1.23 1.47 1.58 1.41 1.36 1.38 1.37 1.38 1.42 1.56 1.76 1.93 1.99 1.94 1.94 1.88 1.87 1.86 1.81 1.77 1.72 1.73 1.73 1.70 1.71 1.74 1.68
1.52 1.56 1.60 1.54 1.54 1.63 1.71 1.75 1.74 1.78 1.88 1.92 1.86 1.64 1.48 1.30 1.38 1.61 1.78 1.65 1.54 1.55 1.55 1.52 1.55 1.66 1.77 1.86 1.86 1.80 1.80 1.86 1.83 1.80 1.78 1.76 1.71 1.67 1.67 1.73 1.73 1.77 1.75
1.51 1.50 1.53 1.53 1.55 1.57 1.59 1.68 1.77 1.83 1.89 1.95 1.82 1.67 1.62 1.50 1.54 1.68 1.75 1.69 1.62 1.58 1.57 1.58 1.63 1.71 1.78 1.80 1.79 1.77 1.76 1.79 1.78 1.76 1.78 1.78 1.76 1.73 1.75 1.75 1.75 1.79 1.81
1.36 1.40 1.48 1.49 1.48 1.46 1.44 1.44 1.49 1.60 1.72 1.76 1.65 1.61 1.61 1.64 1.61 1.65 1.72 1.71 1.66 1.61 1.55 1.56 1.59 1.59 1.59 1.62 1.62 1.64 1.66 1.64 1.64 1.69 1.79 1.83 1.84 1.80 1.76 1.71 1.68 1.72 1.78
1.04 1.06 1.08 1.14 1.17 1.23 1.27 1.30 1.29 1.33 1.46 1.53 1.45 1.46 1.48 1.49 1.46 1.48 1.52 1.54 1.55 1.55 1.52 1.48 1.47 1.48 1.43 1.41 1.43 1.46 1.44 1.46 1.47 1.53 1.61 1.72 1.77 1.81 1.81 1.77 1.78 1.78 1.82
1.03 1.01 0.98 1.02 1.06 1.11 1.15 1.19 1.23 1.30 1.35 1.36 1.37 1.36 1.37 1.36 1.36 1.40 1.37 1.36 1.35 1.34 1.28 1.28 1.32 1.33 1.34 1.27 1.20 1.20 1.26 1.26 1.25 1.32 1.35 1.48 1.58 1.67 1.71 1.72 1.78 1.84 1.85
1.00 1.03 1.02 1.03 1.06 1.11 1.16 1.19 1.21 1.20 1.22 1.21 1.21 1.25 1.32 1.30 1.26 1.25 1.21 1.19 1.21 1.20 1.16 1.15 1.15 1.18 1.18 1.14 1.13 1.17 1.14 1.02 1.04 1.18 1.19 1.26 1.40 1.48 1.54 1.59 1.59 1.67 1.73